Overview Statistics Trail Chart Weather Telemetry Raw packets
 

This is the latest recevied weather packets stored in our database for station/object GBTWP-2. If no packets are shown the sender has not sent any weather packets the latest 10 day(s).

<< 80 81 82 83 84 85 86 >>
Time Temp. Humidity Pressure Rain* Wind** Luminosity Snow
1788098220 18.33° C 98% 1022.3 hPa 4.83 mm - 32 W/m² -
1788097920 18.33° C 98% 1022.2 hPa 6.1 mm - 17 W/m² -
1788097620 18.33° C 98% 1022.2 hPa 7.87 mm - 15 W/m² -
1788097320 18.33° C 98% 1021.9 hPa 6.1 mm - 12 W/m² -
1788097025 18.33° C 97% 1021.8 hPa 6.1 mm - 10 W/m² -
1788096420 18.33° C 97% 1022.1 hPa 7.87 mm - 9 W/m² -
1788096120 18.33° C 97% 1022.2 hPa 4.83 mm - 9 W/m² -
1788095820 18.33° C 97% 1022.3 hPa 4.83 mm - 10 W/m² -
1788095520 18.33° C 97% 1022.2 hPa 6.1 mm - 8 W/m² -
1788095225 18.33° C 97% 1022.1 hPa 7.87 mm - 8 W/m² -
1788094920 18.33° C 97% 1022.4 hPa 7.87 mm - 7 W/m² -
1788094620 18.33° C 97% 1022.6 hPa 7.11 mm - 7 W/m² -
1788094320 18.33° C 97% 1022.6 hPa 7.87 mm - 7 W/m² -
1788094020 18.33° C 97% 1022.4 hPa 6.6 mm - 6 W/m² -
1788093420 18.33° C 97% 1021.9 hPa 6.1 mm - 4 W/m² -
1788093120 18.33° C 97% 1021.8 hPa 4.32 mm - 3 W/m² -
1788092820 18.33° C 97% 1022 hPa 3.05 mm - 3 W/m² -
1788092520 18.33° C 97% 1021.9 hPa 3.05 mm - 2 W/m² -
1788092220 18.89° C 97% 1022 hPa 3.05 mm - 2 W/m² -
1788091920 18.89° C 97% 1022.3 hPa 4.32 mm - 2 W/m² -
1788091620 18.89° C 97% 1022.4 hPa 3.05 mm - 2 W/m² -
1788091320 18.89° C 97% 1022.5 hPa 3.56 mm - 2 W/m² -
1788091020 18.89° C 97% 1022.3 hPa 1.78 mm - 2 W/m² -
1788090720 18.89° C 97% 1021.8 hPa 1.27 mm - 2 W/m² -
1788090420 18.89° C 97% 1021.9 hPa 1.27 mm - 1 W/m² -

* Rain latest hour (hover to see other rain measurements)
** Current wind speed in m/s (hover to see current wind gust speed)